{"data":{"norad_id":64586,"epoch":"2026-09-19T22:47:32.924832Z","epoch_age_seconds":61907,"freshness":"FRESH","line1":"1 64586U 25135BL  26262.94968663  .00002876  00000+0  25260-3 0  9994","line2":"2 64586  97.7775  17.4070 0005021  30.6225 329.5289 14.97374642 68120","mean_motion":14.97374642,"eccentricity":0.0005021,"inclination_deg":97.7775,"raan_deg":17.407,"arg_perigee_deg":30.6225,"mean_anomaly_deg":329.5289,"bstar":0.0002526,"rev_number":6812,"period_min":96.16831750781,"perigee_km":571.5206514061,"apogee_km":578.50300345861,"semimajor_km":6953.1488274324,"source":"CELESTRAK","updated_at":"2026-09-20T09:00:34.877783Z"}}